Weather History for Hot Springs, AR

Change the Weather History Date:

Wednesday, October 2, 2013

  Actual Average Record
Temperature  
Mean Temperature 76 °F -  
Max Temperature 86 °F 83 °F 99 °F (1953)
Min Temperature 69 °F 55 °F 38 °F (1984)
Cooling Degree Days 12    
Growing Degree Days 26 (Base 50)    
Moisture  
Dew Point 69 °F    
Average Humidity 81    
Maximum Humidity 94    
Minimum Humidity 58    
Precipitation  
Precipitation 0.00 in - - ()
Sea Level Pressure  
Sea Level Pressure 30.02 in    
Wind  
Wind Speed 4 mph (SE)    
Max Wind Speed 10 mph    
Max Gust Speed -    
Visibility 10 miles    
Events      
Averages and records for this station are not official NWS values.
T = Trace of Precipitation, MM = Missing Value Source: NWS Daily Summary

Daily Weather History Graph

Daily Weather History Graph

Search for Another Location

Airport:

Trip Planner

Search our weather history database for the weather conditions in past years. The results will help you decide how hot, cold, wet, or windy it might be!

Date:

Astronomy

Oct. 02, 2013 Rise Set
Actual Time 7:07 AM CDT 6:54 PM CDT
Civil Twilight 6:42 AM CDT 7:19 PM CDT
Nautical Twilight 6:13 AM CDT 7:48 PM CDT
Astronomical Twilight 5:44 AM CDT 8:18 PM CDT
Moon 4:46 AM CDT (10/2) 5:27 PM CDT (10/2)
Length of Visible Light 12h 36m
Length of Day
11h 46m
Waning Crescent, 6% of the Moon is Illuminated
Oct 2
Waning Crescent
Oct 4
New
Oct 11
First Quarter
Oct 18
Full
Oct 26
Last Quarter

Hourly Weather History & Observations

Time (CDT) Temp. Heat Index Dew Point Humidity Pressure Visibility Wind Dir Wind Speed Gust Speed Precip Events Conditions
12:53 AM 73.0 °F - 68.0 °F 84% 30.00 in 10.0 mi ESE 3.5 mph - N/A   Partly Cloudy
1:53 AM 72.0 °F - 68.0 °F 87% 30.00 in 10.0 mi Calm Calm - N/A   Clear
2:53 AM 71.1 °F - 66.9 °F 87% 30.00 in 10.0 mi East 4.6 mph - N/A   Clear
3:53 AM 70.0 °F - 66.9 °F 90% 30.00 in 10.0 mi ESE 3.5 mph - N/A   Clear
4:53 AM 70.0 °F - 66.9 °F 90% 30.00 in 10.0 mi East 3.5 mph - N/A   Clear
5:26 AM 69.8 °F - 68.0 °F 94% 30.03 in 10.0 mi ESE 5.8 mph - N/A   Scattered Clouds
5:37 AM 71.6 °F - 68.0 °F 88% 30.03 in 10.0 mi East 3.5 mph - N/A   Mostly Cloudy
5:53 AM 70.0 °F - 68.0 °F 93% 30.02 in 10.0 mi East 4.6 mph - N/A   Overcast
6:53 AM 71.1 °F - 69.1 °F 93% 30.03 in 10.0 mi ESE 3.5 mph - N/A   Overcast
7:48 AM 71.6 °F - 69.8 °F 94% 30.05 in 10.0 mi Calm Calm - N/A   Overcast
7:53 AM 72.0 °F - 69.1 °F 91% 30.04 in 10.0 mi Calm Calm - N/A   Overcast
8:16 AM 73.4 °F - 69.8 °F 88% 30.06 in 10.0 mi ESE 3.5 mph - N/A   Overcast
8:39 AM 73.4 °F - 69.8 °F 88% 30.06 in 10.0 mi East 3.5 mph - N/A   Overcast
8:53 AM 73.0 °F - 70.0 °F 90% 30.05 in 10.0 mi Calm Calm - N/A   Overcast
9:53 AM 73.9 °F - 70.0 °F 87% 30.06 in 10.0 mi SSW 4.6 mph - N/A   Overcast
10:53 AM 75.0 °F - 70.0 °F 84% 30.06 in 10.0 mi South 3.5 mph - N/A   Overcast
11:16 AM 75.2 °F - 69.8 °F 83% 30.08 in 10.0 mi South 3.5 mph - N/A   Overcast
11:24 AM 77.0 °F - 69.8 °F 78% 30.08 in 10.0 mi Calm Calm - N/A   Overcast
11:53 AM 78.1 °F - 70.0 °F 76% 30.05 in 10.0 mi South 5.8 mph - N/A   Overcast
12:04 PM 80.6 °F 83.9 °F 69.8 °F 70% 30.07 in 10.0 mi South 8.1 mph - N/A   Mostly Cloudy
12:53 PM 82.0 °F 85.5 °F 69.1 °F 65% 30.02 in 10.0 mi South 8.1 mph - N/A   Partly Cloudy
1:53 PM 84.0 °F 87.0 °F 68.0 °F 58% 30.00 in 10.0 mi SW 10.4 mph - N/A   Scattered Clouds
2:53 PM 84.0 °F 87.0 °F 68.0 °F 58% 29.97 in 10.0 mi SW 4.6 mph - N/A   Mostly Cloudy
3:53 PM 84.9 °F 88.8 °F 69.1 °F 59% 29.96 in 10.0 mi South 8.1 mph - N/A   Mostly Cloudy
4:53 PM 84.0 °F 87.8 °F 69.1 °F 61% 29.95 in 10.0 mi Variable 5.8 mph - N/A   Partly Cloudy
5:53 PM 82.0 °F 85.5 °F 69.1 °F 65% 29.96 in 10.0 mi SE 3.5 mph - N/A   Partly Cloudy
6:53 PM 79.0 °F - 69.1 °F 72% 29.96 in 10.0 mi SE 8.1 mph - N/A   Clear
7:53 PM 77.0 °F - 68.0 °F 74% 29.97 in 10.0 mi ESE 3.5 mph - N/A   Partly Cloudy
8:53 PM 73.9 °F - 69.1 °F 85% 29.98 in 10.0 mi East 5.8 mph - N/A   Clear
9:53 PM 73.0 °F - 70.0 °F 90% 29.99 in 10.0 mi ESE 4.6 mph - N/A   Clear
10:53 PM 73.0 °F - 70.0 °F 90% 29.99 in 10.0 mi East 5.8 mph - N/A   Clear
11:53 PM 72.0 °F - 69.1 °F 91% 29.98 in 10.0 mi East 4.6 mph - N/A   Clear